DW5595 Weather Reports


time (UTC)temp
C
wind
direction
speed
KPH
gust
KPH
rain 1hr
cm
rain 24hr
cm
rain mn
cm
humidity
%
barometer
mb
20260502224513 16 309 8.0 19.3 0.00 0.00 0.00 39 1011.4
20260502223011 16 325 4.8 9.7 0.00 0.00 0.00 46 1011.3
20260502221513 17 327 3.2 6.4 0.00 0.00 0.00 44 1011.0
20260502220013 17 311 0.0 4.8 0.00 0.00 0.00 43 1011.0
20260502214514 17 323 4.8 11.3 0.00 0.00 0.00 42 1010.7
20260502213014 17 319 3.2 11.3 0.00 0.00 0.00 44 1010.7
20260502211514 17 5 4.8 8.0 0.00 0.00 0.00 43 1010.7
20260502210014 16 29 3.2 9.7 0.00 0.00 0.00 42 1010.8
20260502204523 17 347 4.8 9.7 0.00 0.00 0.00 44 1010.8
20260502203018 16 30 1.6 11.3 0.00 0.00 0.00 41 1010.7
20260502201517 16 336 3.2 8.0 0.00 0.00 0.00 40 1011.0
20260502200015 16 360 4.8 12.9 0.00 0.00 0.00 40 1011.2
20260502194518 16 10 9.7 16.1 0.00 0.00 0.00 40 1011.4
20260502193023 16 9 6.4 14.5 0.00 0.00 0.00 40 1011.6
20260502191521 16 21 4.8 8.0 0.00 0.00 0.00 42 1011.6
20260502190018 16 142 1.6 6.4 0.00 0.00 0.00 49 1011.9
20260502184526 15 352 1.6 8.0 0.00 0.00 0.00 48 1012.0
20260502183017 15 168 0.0 6.4 0.00 0.00 0.00 48 1012.2
20260502181515 15 15 1.6 4.8 0.00 0.00 0.00 48 1012.3
20260502161510 12 23 3.2 9.7 0.00 0.00 0.00 51 1014.0
20260502151523 12 20 3.2 8.0 0.00 0.00 0.00 54 1013.9
20260502123007 12 27 4.8 11.3 0.00 0.00 0.00 72 1013.1
20260502114522 11 339 0.0 0.0 0.00 0.00 0.00 84 1012.4
20260502113019 11 339 0.0 0.0 0.00 0.00 0.00 85 1013.1
20260502111518 11 344 0.0 0.0 0.00 0.00 0.00 88 1012.6
20260502110015 11 344 0.0 0.0 0.00 0.00 0.00 87 1012.4
20260502103026 11 326 0.0 0.0 0.00 0.00 0.00 90 1012.1
20260502101526 11 326 0.0 0.0 0.00 0.00 0.00 90 1012.2
20260502091529 11 319 0.0 0.0 0.00 0.00 0.00 93 1012.5
20260502071517 11 169 0.0 0.0 0.00 0.00 0.00 92 1011.6
20260502070028 11 169 0.0 0.0 0.00 0.00 0.00 92 1011.6
20260502064524 11 169 0.0 0.0 0.00 0.00 0.00 91 1011.6
20260502063026 11 333 0.0 0.0 0.00 0.00 0.00 92 1011.8
20260502060022 11 140 0.0 0.0 0.00 0.00 0.00 90 1011.8
20260502054519 11 140 0.0 0.0 0.00 0.00 0.00 90 1012.1
20260502053016 11 140 0.0 0.0 0.00 0.00 0.00 90 1012.1
20260502051510 11 140 0.0 0.0 0.00 0.00 0.00 89 1012.2
20260502050009 11 140 0.0 0.0 0.00 0.00 0.00 90 1012.1
20260502044529 11 140 0.0 0.0 0.00 0.00 0.00 89 1012.2
20260502043022 11 140 0.0 0.0 0.00 0.00 0.00 89 1012.4
20260502041521 11 140 0.0 0.0 0.00 0.00 0.00 89 1012.4
20260502040020 11 140 0.0 0.0 0.00 0.00 0.00 88 1012.4
20260502034514 11 140 0.0 0.0 0.00 0.00 0.00 87 1012.6
20260502033013 11 140 0.0 0.0 0.00 0.00 0.00 87 1012.7
20260502031525 11 140 0.0 0.0 0.00 0.00 0.00 87 1012.8
20260502030026 11 140 0.0 0.0 0.00 0.00 0.00 85 1012.9
20260502024523 12 140 0.0 0.0 0.00 0.00 0.00 85 1013.0
20260502023029 12 140 0.0 0.0 0.00 0.00 0.00 83 1013.1
20260502020024 12 140 0.0 0.0 0.00 0.00 0.00 81 1012.7
20260502014511 13 140 0.0 0.0 0.00 0.00 0.00 80 1012.6
20260502013025 13 140 0.0 0.0 0.00 0.00 0.00 80 1012.5
20260502011523 13 140 0.0 3.2 0.00 0.00 0.00 75 1012.5
20260502010022 13 140 0.0 1.6 0.00 0.00 0.00 75 1012.3
20260502003019 15 140 0.0 0.0 0.00 0.00 0.00 72 1012.1
20260502001516 15 140 0.0 0.0 0.00 0.00 0.00 66 1011.7
20260501234525 16 165 0.0 3.2 0.00 0.00 0.00 60 1011.4
20260501233032 17 115 1.6 4.8 0.00 0.00 0.00 60 1010.9
20260501231524 17 148 3.2 8.0 0.00 0.00 0.00 56 1011.0
20260501230024 17 188 3.2 6.4 0.00 0.00 0.00 55 1011.4